| time (UTC) | temp C | wind direction | speed KPH | gust KPH | rain 1hr cm | rain 24hr cm | rain mn cm | humidity % | barometer mb |
| 20260507094521 | 10 | 298 | 8.0 | 17.7 | 0.00 | 0.00 | 0.00 | 76 | 1022.0 |
| 20260507093022 | 10 | 336 | 4.8 | 16.1 | 0.00 | 0.00 | 0.00 | 76 | 1022.0 |
| 20260507091522 | 11 | 325 | 3.2 | 12.9 | 0.00 | 0.00 | 0.00 | 77 | 1022.2 |
| 20260507090017 | 11 | 337 | 6.4 | 17.7 | 0.00 | 0.00 | 0.00 | 76 | 1022.3 |
| 20260507084521 | 11 | 350 | 3.2 | 12.9 | 0.00 | 0.00 | 0.00 | 77 | 1022.2 |
| 20260507083017 | 11 | 333 | 4.8 | 11.3 | 0.00 | 0.00 | 0.00 | 78 | 1022.2 |
| 20260507081529 | 11 | 313 | 8.0 | 19.3 | 0.00 | 0.00 | 0.00 | 78 | 1022.2 |
| 20260507080025 | 11 | 321 | 6.4 | 14.5 | 0.00 | 0.00 | 0.00 | 77 | 1022.1 |
| 20260507074525 | 11 | 338 | 1.6 | 6.4 | 0.00 | 0.00 | 0.00 | 77 | 1022.1 |
| 20260507073024 | 11 | 294 | 4.8 | 9.7 | 0.00 | 0.00 | 0.00 | 77 | 1022.1 |
| 20260507071528 | 11 | 351 | 1.6 | 9.7 | 0.00 | 0.00 | 0.00 | 77 | 1022.0 |
| 20260507070026 | 11 | 324 | 3.2 | 14.5 | 0.00 | 0.00 | 0.00 | 77 | 1021.9 |
| 20260507064550 | 11 | 280 | 1.6 | 14.5 | 0.00 | 0.00 | 0.00 | 77 | 1022.0 |
| 20260507063034 | 11 | 306 | 8.0 | 14.5 | 0.00 | 0.00 | 0.00 | 77 | 1022.1 |
| 20260507061529 | 11 | 347 | 6.4 | 14.5 | 0.00 | 0.00 | 0.00 | 78 | 1022.2 |
| 20260507060029 | 11 | 317 | 6.4 | 17.7 | 0.00 | 0.00 | 0.00 | 78 | 1022.1 |
| 20260507054525 | 11 | 328 | 8.0 | 17.7 | 0.00 | 0.00 | 0.00 | 78 | 1022.1 |
| 20260507053025 | 11 | 325 | 9.7 | 16.1 | 0.00 | 0.00 | 0.00 | 78 | 1022.2 |
| 20260507051522 | 11 | 5 | 4.8 | 14.5 | 0.00 | 0.00 | 0.00 | 79 | 1022.2 |
| 20260507050038 | 11 | 309 | 3.2 | 14.5 | 0.00 | 0.00 | 0.00 | 78 | 1022.2 |
| 20260507044513 | 12 | 9 | 6.4 | 14.5 | 0.00 | 0.00 | 0.00 | 78 | 1022.2 |
| 20260507043010 | 12 | 9 | 8.0 | 17.7 | 0.00 | 0.00 | 0.00 | 77 | 1022.2 |
| 20260507041520 | 12 | 351 | 9.7 | 24.1 | 0.00 | 0.00 | 0.00 | 76 | 1022.0 |
| 20260507040011 | 12 | 334 | 8.0 | 25.7 | 0.00 | 0.00 | 0.00 | 76 | 1022.0 |
| 20260507034508 | 12 | 304 | 9.7 | 22.5 | 0.00 | 0.00 | 0.00 | 75 | 1021.8 |
| 20260507033025 | 13 | 343 | 9.7 | 29.0 | 0.00 | 0.00 | 0.00 | 75 | 1021.7 |
| 20260507031520 | 13 | 352 | 8.0 | 27.4 | 0.00 | 0.00 | 0.00 | 74 | 1021.5 |
| 20260507030025 | 13 | 11 | 9.7 | 17.7 | 0.00 | 0.00 | 0.00 | 75 | 1021.3 |
| 20260507024519 | 13 | 325 | 9.7 | 19.3 | 0.00 | 0.00 | 0.00 | 74 | 1021.1 |
| 20260507023008 | 14 | 324 | 11.3 | 24.1 | 0.00 | 0.00 | 0.00 | 73 | 1021.0 |
| 20260507021515 | 15 | 9 | 8.0 | 19.3 | 0.00 | 0.00 | 0.00 | 73 | 1021.0 |
| 20260507020012 | 15 | 9 | 6.4 | 19.3 | 0.00 | 0.00 | 0.00 | 74 | 1021.1 |
| 20260507014514 | 15 | 315 | 3.2 | 17.7 | 0.00 | 0.00 | 0.00 | 73 | 1021.2 |
| 20260507013018 | 15 | 331 | 8.0 | 22.5 | 0.00 | 0.00 | 0.00 | 72 | 1021.3 |
| 20260507011517 | 16 | 5 | 12.9 | 20.9 | 0.00 | 0.00 | 0.00 | 71 | 1021.3 |
| 20260507010015 | 16 | 340 | 11.3 | 20.9 | 0.00 | 0.00 | 0.00 | 70 | 1021.3 |
| 20260507004526 | 16 | 360 | 11.3 | 20.9 | 0.00 | 0.00 | 0.00 | 71 | 1021.1 |
| 20260507003023 | 17 | 360 | 11.3 | 19.3 | 0.00 | 0.00 | 0.00 | 69 | 1021.0 |
| 20260507001520 | 17 | 350 | 6.4 | 16.1 | 0.00 | 0.00 | 0.00 | 69 | 1021.0 |
| 20260507000017 | 17 | 9 | 6.4 | 19.3 | 0.00 | 0.00 | 0.00 | 67 | 1021.0 |
| 20260506234517 | 17 | 333 | 9.7 | 16.1 | 0.00 | 0.00 | 0.00 | 68 | 1021.0 |
| 20260506233022 | 18 | 310 | 8.0 | 17.7 | 0.00 | 0.00 | 0.00 | 70 | 1020.9 |
| 20260506231514 | 18 | 302 | 3.2 | 12.9 | 0.00 | 0.00 | 0.00 | 69 | 1021.0 |
| 20260506230029 | 18 | 333 | 4.8 | 11.3 | 0.00 | 0.00 | 0.00 | 68 | 1021.0 |
| 20260506224532 | 18 | 337 | 4.8 | 12.9 | 0.00 | 0.00 | 0.00 | 71 | 1021.0 |
| 20260506223022 | 17 | 55 | 4.8 | 8.0 | 0.00 | 0.00 | 0.00 | 72 | 1021.3 |
| 20260506221522 | 17 | 63 | 4.8 | 11.3 | 0.00 | 0.00 | 0.00 | 74 | 1021.3 |
| 20260506220023 | 17 | 298 | 0.0 | 8.0 | 0.00 | 0.00 | 0.00 | 72 | 1021.3 |
| 20260506214516 | 17 | 334 | 1.6 | 12.9 | 0.00 | 0.00 | 0.00 | 73 | 1021.4 |
| 20260506213030 | 17 | 71 | 4.8 | 11.3 | 0.00 | 0.00 | 0.00 | 74 | 1021.4 |
| 20260506211530 | 17 | 13 | 3.2 | 6.4 | 0.00 | 0.00 | 0.00 | 72 | 1021.4 |
| 20260506210031 | 16 | 327 | 3.2 | 8.0 | 0.00 | 0.00 | 0.00 | 76 | 1021.7 |
| 20260506204532 | 16 | 41 | 1.6 | 6.4 | 0.00 | 0.00 | 0.00 | 74 | 1021.7 |
| 20260506203023 | 16 | 289 | 1.6 | 4.8 | 0.00 | 0.00 | 0.00 | 75 | 1021.8 |
| 20260506201529 | 16 | 300 | 0.0 | 4.8 | 0.00 | 0.00 | 0.00 | 74 | 1021.6 |
| 20260506200019 | 16 | 32 | 1.6 | 4.8 | 0.00 | 0.00 | 0.00 | 74 | 1021.6 |
| 20260506194519 | 15 | 148 | 1.6 | 4.8 | 0.00 | 0.00 | 0.00 | 77 | 1021.8 |
| 20260506193026 | 15 | 276 | 0.0 | 4.8 | 0.00 | 0.00 | 0.00 | 80 | 1021.9 |
| 20260506191526 | 14 | 311 | 1.6 | 4.8 | 0.00 | 0.00 | 0.00 | 80 | 1022.1 |
| 20260506190030 | 14 | 311 | 1.6 | 3.2 | 0.00 | 0.00 | 0.00 | 81 | 1022.0 |
| 20260506184526 | 14 | 229 | 1.6 | 3.2 | 0.00 | 0.00 | 0.00 | 80 | 1021.9 |
| 20260506183023 | 14 | 250 | 3.2 | 4.8 | 0.00 | 0.00 | 0.00 | 80 | 1021.8 |
| 20260506181526 | 14 | 5 | 0.0 | 3.2 | 0.00 | 0.00 | 0.00 | 80 | 1021.7 |
| 20260506180031 | 14 | 283 | 0.0 | 4.8 | 0.00 | 0.00 | 0.00 | 79 | 1021.8 |
| 20260506174532 | 13 | 209 | 1.6 | 3.2 | 0.00 | 0.00 | 0.00 | 81 | 1021.7 |
| 20260506173029 | 13 | 289 | 1.6 | 8.0 | 0.00 | 0.00 | 0.00 | 79 | 1021.6 |
| 20260506171538 | 13 | 360 | 3.2 | 4.8 | 0.00 | 0.00 | 0.00 | 79 | 1021.5 |
| 20260506170026 | 13 | 319 | 1.6 | 4.8 | 0.00 | 0.00 | 0.00 | 81 | 1021.6 |
| 20260506164505 | 13 | 270 | 3.2 | 6.4 | 0.00 | 0.00 | 0.00 | 80 | 1021.5 |
| 20260506163010 | 12 | 316 | 1.6 | 4.8 | 0.00 | 0.00 | 0.00 | 81 | 1021.7 |
| 20260506161509 | 12 | 311 | 3.2 | 8.0 | 0.00 | 0.00 | 0.00 | 81 | 1021.6 |
| 20260506160005 | 12 | 98 | 0.0 | 4.8 | 0.00 | 0.00 | 0.00 | 82 | 1021.2 |
| 20260506154504 | 12 | 68 | 1.6 | 4.8 | 0.00 | 0.00 | 0.00 | 81 | 1020.9 |
| 20260506153010 | 12 | 20 | 1.6 | 11.3 | 0.00 | 0.00 | 0.00 | 82 | 1020.7 |
| 20260506151507 | 12 | 16 | 3.2 | 9.7 | 0.00 | 0.00 | 0.00 | 83 | 1021.1 |
| 20260506150005 | 12 | 5 | 1.6 | 6.4 | 0.00 | 0.00 | 0.00 | 84 | 1021.4 |
| 20260506144516 | 12 | 24 | 6.4 | 14.5 | 0.00 | 0.00 | 0.00 | 84 | 1021.3 |
| 20260506143012 | 12 | 352 | 3.2 | 14.5 | 0.00 | 0.00 | 0.00 | 84 | 1021.0 |
| 20260506141509 | 12 | 352 | 3.2 | 8.0 | 0.00 | 0.00 | 0.00 | 85 | 1020.8 |
| 20260506140016 | 12 | 315 | 6.4 | 9.7 | 0.00 | 0.00 | 0.00 | 85 | 1020.5 |
| 20260506134504 | 11 | 329 | 4.8 | 8.0 | 0.00 | 0.00 | 0.00 | 86 | 1020.6 |
| 20260506133006 | 11 | 336 | 3.2 | 8.0 | 0.00 | 0.00 | 0.00 | 86 | 1020.4 |
| 20260506131522 | 11 | 326 | 3.2 | 6.4 | 0.00 | 0.00 | 0.00 | 86 | 1020.3 |
| 20260506130022 | 11 | 340 | 1.6 | 12.9 | 0.00 | 0.00 | 0.00 | 86 | 1020.0 |
| 20260506124522 | 11 | 325 | 6.4 | 12.9 | 0.00 | 0.00 | 0.00 | 86 | 1020.0 |
| 20260506123016 | 12 | 17 | 1.6 | 3.2 | 0.00 | 0.00 | 0.00 | 86 | 1019.8 |
| 20260506121512 | 12 | 11 | 1.6 | 4.8 | 0.00 | 0.00 | 0.00 | 86 | 1019.8 |
| 20260506120011 | 12 | 326 | 4.8 | 8.0 | 0.00 | 0.00 | 0.00 | 85 | 1019.8 |
| 20260506114522 | 12 | 295 | 3.2 | 8.0 | 0.00 | 0.00 | 0.00 | 85 | 1019.7 |
| 20260506113024 | 12 | 31 | 4.8 | 8.0 | 0.00 | 0.00 | 0.00 | 85 | 1019.5 |
| 20260506111525 | 12 | 259 | 4.8 | 9.7 | 0.00 | 0.00 | 0.00 | 85 | 1019.4 |
| 20260506110021 | 12 | 274 | 4.8 | 9.7 | 0.00 | 0.00 | 0.00 | 84 | 1019.3 |
| 20260506104516 | 12 | 329 | 3.2 | 8.0 | 0.00 | 0.00 | 0.00 | 84 | 1019.1 |
| 20260506103012 | 12 | 341 | 6.4 | 11.3 | 0.00 | 0.00 | 0.00 | 84 | 1019.0 |
| 20260506101508 | 12 | 340 | 1.6 | 8.0 | 0.00 | 0.00 | 0.00 | 84 | 1018.9 |